{"data":{"norad_id":59875,"epoch":"2026-09-21T13:35:55.838400Z","epoch_age_seconds":82315,"freshness":"FRESH","line1":"1 59875U 24098T   26264.56661850 -.00001556  00000+0 -47055-4 0  9997","line2":"2 59875  43.0022 219.4537 0001443 267.3167  92.7519 15.27567136132161","mean_motion":15.27567136,"eccentricity":0.0001443,"inclination_deg":43.0022,"raan_deg":219.4537,"arg_perigee_deg":267.3167,"mean_anomaly_deg":92.7519,"bstar":-4.7055e-5,"rev_number":13216,"period_min":94.267542555982,"perigee_km":482.09754104172,"apogee_km":484.07769046582,"semimajor_km":6861.2246157538,"source":"CELESTRAK","updated_at":"2026-09-22T09:00:49.103906Z"}}